Total_Precipitation_Accumulation
0.07 0.13 0.30 0.34 0.34 0.32 0.33 0.30 0.29 0.28 0.27 0.28 0.29 0.30 0.28 0.28 0.26 0.25 0.24 0.25 0.31 0.39 0.48 0.51 0.48 0.43 0.38 0.32 0.20 0.12 0.10 0.12 0.08 0.07 0.06 0.07 0.09 0.11 0.09 0.08 0.09 0.14 0.18
0.07 0.13 0.27 0.34 0.38 0.39 0.37 0.34 0.29 0.26 0.26 0.32 0.35 0.32 0.31 0.30 0.29 0.28 0.30 0.33 0.35 0.40 0.46 0.51 0.50 0.39 0.30 0.23 0.14 0.09 0.08 0.04 0.02 0.01 0.01 0.02 0.04 0.07 0.07 0.06 0.08 0.13 0.17
0.08 0.14 0.25 0.35 0.42 0.42 0.38 0.33 0.28 0.26 0.27 0.33 0.37 0.36 0.35 0.34 0.33 0.31 0.31 0.33 0.36 0.40 0.39 0.37 0.36 0.27 0.19 0.13 0.09 0.07 0.06 0.03 0.02 0.01 0.02 0.04 0.05 0.08 0.08 0.08 0.12 0.15 0.17
0.13 0.17 0.24 0.38 0.51 0.47 0.43 0.36 0.31 0.31 0.33 0.37 0.42 0.41 0.43 0.39 0.37 0.36 0.32 0.30 0.32 0.30 0.29 0.27 0.22 0.15 0.11 0.09 0.08 0.07 0.05 0.03 0.02 0.02 0.03 0.05 0.07 0.12 0.13 0.13 0.14 0.15 0.16
0.19 0.22 0.29 0.40 0.58 0.58 0.48 0.40 0.35 0.37 0.41 0.45 0.48 0.49 0.52 0.46 0.43 0.41 0.34 0.30 0.29 0.22 0.20 0.19 0.14 0.09 0.07 0.07 0.07 0.07 0.05 0.04 0.03 0.02 0.03 0.07 0.10 0.16 0.16 0.15 0.15 0.15 0.15
0.26 0.31 0.38 0.48 0.64 0.72 0.60 0.50 0.43 0.42 0.46 0.53 0.58 0.60 0.59 0.56 0.52 0.47 0.35 0.28 0.23 0.17 0.15 0.15 0.13 0.08 0.05 0.05 0.05 0.06 0.07 0.06 0.04 0.03 0.03 0.06 0.10 0.18 0.19 0.17 0.17 0.18 0.19
0.31 0.44 0.54 0.62 0.72 0.87 0.80 0.68 0.60 0.56 0.56 0.59 0.64 0.63 0.64 0.65 0.63 0.55 0.37 0.26 0.20 0.17 0.14 0.13 0.13 0.09 0.07 0.07 0.06 0.06 0.07 0.07 0.05 0.05 0.05 0.06 0.12 0.22 0.22 0.18 0.18 0.18 0.17
0.41 0.52 0.72 0.91 0.95 1.07 1.06 0.86 0.76 0.69 0.68 0.69 0.67 0.66 0.68 0.70 0.68 0.64 0.42 0.27 0.20 0.19 0.17 0.14 0.14 0.12 0.08 0.08 0.07 0.07 0.08 0.05 0.04 0.05 0.05 0.06 0.11 0.17 0.16 0.13 0.14 0.15 0.16
0.66 0.64 0.76 0.95 1.09 1.17 1.22 1.00 0.91 0.81 0.74 0.73 0.75 0.75 0.67 0.62 0.63 0.59 0.43 0.30 0.25 0.24 0.23 0.20 0.18 0.18 0.13 0.11 0.10 0.08 0.06 0.04 0.04 0.05 0.04 0.05 0.08 0.13 0.13 0.14 0.17 0.18 0.20
1.01 0.93 0.87 0.96 1.08 1.23 1.30 1.03 0.90 0.83 0.79 0.78 0.76 0.67 0.55 0.51 0.53 0.50 0.38 0.30 0.27 0.27 0.26 0.22 0.20 0.19 0.17 0.13 0.11 0.08 0.06 0.04 0.04 0.05 0.05 0.06 0.08 0.12 0.15 0.18 0.19 0.21 0.23
1.29 1.26 1.17 1.12 1.08 1.13 1.25 1.09 0.96 0.88 0.80 0.76 0.74 0.63 0.54 0.52 0.52 0.44 0.32 0.26 0.26 0.28 0.27 0.23 0.20 0.20 0.16 0.12 0.11 0.09 0.09 0.08 0.08 0.08 0.08 0.07 0.08 0.12 0.18 0.22 0.23 0.23 0.23
1.34 1.31 1.30 1.29 1.23 1.20 1.22 1.17 1.10 0.95 0.86 0.76 0.68 0.62 0.60 0.57 0.52 0.43 0.35 0.29 0.30 0.31 0.32 0.29 0.24 0.20 0.15 0.12 0.12 0.12 0.12 0.09 0.10 0.11 0.10 0.09 0.11 0.18 0.23 0.26 0.23 0.21 0.21
1.56 1.43 1.36 1.40 1.44 1.34 1.28 1.19 1.11 0.91 0.85 0.83 0.77 0.68 0.63 0.66 0.64 0.59 0.45 0.35 0.35 0.33 0.33 0.31 0.27 0.21 0.16 0.14 0.13 0.11 0.13 0.14 0.13 0.12 0.11 0.10 0.14 0.22 0.27 0.27 0.23 0.22 0.22
1.86 1.70 1.59 1.63 1.65 1.51 1.40 1.30 1.17 0.95 0.79 0.78 0.79 0.80 0.72 0.66 0.59 0.57 0.49 0.38 0.36 0.34 0.35 0.34 0.28 0.24 0.22 0.19 0.17 0.16 0.15 0.15 0.15 0.16 0.15 0.14 0.12 0.18 0.26 0.31 0.29 0.28 0.27
2.02 2.01 1.87 1.82 1.87 1.73 1.61 1.47 1.22 1.04 0.84 0.73 0.75 0.81 0.77 0.67 0.60 0.55 0.50 0.46 0.40 0.37 0.35 0.37 0.33 0.29 0.28 0.28 0.26 0.21 0.19 0.17 0.17 0.18 0.20 0.20 0.16 0.17 0.25 0.32 0.37 0.40 0.43
2.00 2.13 2.11 2.06 2.03 1.90 1.71 1.56 1.31 1.18 0.98 0.84 0.80 0.79 0.78 0.75 0.69 0.64 0.54 0.50 0.44 0.41 0.39 0.41 0.43 0.37 0.31 0.29 0.28 0.26 0.23 0.20 0.17 0.16 0.17 0.19 0.19 0.20 0.24 0.31 0.39 0.50 0.58
2.00 2.18 2.24 2.31 2.43 2.19 1.96 1.77 1.51 1.31 1.17 1.03 0.89 0.80 0.75 0.75 0.79 0.76 0.68 0.57 0.49 0.50 0.48 0.48 0.49 0.49 0.43 0.34 0.31 0.29 0.27 0.26 0.22 0.19 0.17 0.16 0.16 0.15 0.19 0.29 0.38 0.45 0.53
2.05 2.11 2.21 2.21 2.41 2.45 2.31 2.07 1.74 1.48 1.29 1.18 1.06 0.92 0.85 0.80 0.84 0.86 0.80 0.75 0.67 0.62 0.58 0.56 0.53 0.48 0.44 0.37 0.32 0.30 0.30 0.30 0.27 0.26 0.25 0.19 0.16 0.12 0.14 0.21 0.28 0.34 0.42
2.10 2.11 2.25 2.26 2.30 2.41 2.47 2.34 2.09 1.82 1.55 1.38 1.28 1.10 1.01 0.99 0.99 0.98 0.88 0.88 0.90 0.81 0.70 0.65 0.62 0.54 0.50 0.46 0.42 0.40 0.38 0.34 0.31 0.28 0.25 0.21 0.19 0.18 0.16 0.17 0.21 0.25 0.30
2.14 2.26 2.33 2.47 2.49 2.61 2.79 2.69 2.43 2.18 1.94 1.74 1.51 1.41 1.30 1.19 1.15 1.09 1.04 0.99 1.01 0.96 0.83 0.75 0.68 0.62 0.55 0.56 0.56 0.49 0.43 0.37 0.35 0.33 0.29 0.25 0.23 0.24 0.25 0.25 0.26 0.26 0.28
1.84 2.06 2.09 2.29 2.51 2.64 2.70 2.57 2.37 2.16 2.01 1.85 1.71 1.62 1.52 1.41 1.34 1.21 1.11 1.09 1.10 1.05 0.95 0.90 0.84 0.73 0.67 0.69 0.67 0.54 0.43 0.38 0.33 0.30 0.33 0.33 0.29 0.27 0.27 0.30 0.32 0.31 0.27
1.48 1.63 1.74 1.87 2.12 2.33 2.41 2.35 2.34 2.37 2.19 1.95 1.78 1.66 1.61 1.55 1.47 1.34 1.21 1.17 1.15 1.12 1.03 0.98 1.01 0.97 0.87 0.85 0.84 0.81 0.65 0.50 0.38 0.33 0.34 0.33 0.32 0.31 0.30 0.28 0.29 0.31 0.33
1.18 1.33 1.43 1.55 1.70 1.83 2.15 2.36 2.35 2.40 2.32 2.02 1.74 1.56 1.59 1.69 1.68 1.54 1.38 1.33 1.30 1.30 1.22 1.14 1.11 1.07 1.06 1.02 1.04 1.11 0.95 0.69 0.49 0.39 0.37 0.36 0.36 0.35 0.34 0.34 0.33 0.33 0.35
0.94 1.10 1.24 1.37 1.47 1.55 1.80 2.04 2.02 1.90 1.85 1.76 1.67 1.65 1.65 1.70 1.77 1.77 1.68 1.55 1.45 1.42 1.38 1.44 1.45 1.34 1.26 1.14 1.07 1.03 1.01 0.85 0.79 0.61 0.44 0.41 0.40 0.38 0.37 0.35 0.35 0.35 0.34
0.77 0.85 1.01 1.22 1.30 1.36 1.46 1.64 1.84 1.83 1.76 1.78 1.77 1.70 1.59 1.53 1.62 1.72 1.74 1.66 1.51 1.38 1.31 1.37 1.44 1.47 1.36 1.27 1.19 1.12 1.09 0.97 0.88 0.86 0.65 0.48 0.45 0.43 0.43 0.43 0.45 0.47 0.48
0.67 0.65 0.78 0.95 1.18 1.27 1.33 1.42 1.56 1.62 1.57 1.56 1.63 1.64 1.63 1.53 1.46 1.49 1.56 1.52 1.51 1.43 1.33 1.34 1.42 1.50 1.49 1.43 1.33 1.22 1.16 1.10 0.96 0.97 0.91 0.69 0.61 0.55 0.55 0.57 0.60 0.62 0.62